Other Surface Observations
Issued by NWS

Home | Current Version | Previous Version | Text Only | Print | Product List | Glossary On
Versions: 1 2 3 4 5 6 7 8 9 10 11 12 13 14 15 16 17 18 19 20 21 22 23 24 25 26 27 28 29 30 31 32 33 34 35 36 37 38 39 40 41 42 43 44 45 46 47 48 49 50
000
SXUS52 KTAE 241518
OSOTAE
OSOTAE
North Florida/South Alabama/Southwest Georgia Weather Roundup
National Weather Service Tallahassee Florida
1100 AM EDT SUN MAY 24 2015

Note: "fair" indicates few or no clouds below 12,000 feet with no
significant weather and/or obstructions to visibility.

!FLZ017-115-028-034-025-241600
...North Florida...

CITY           SKY/WX    TMP DP  RH WIND       PRES   REMARKS
TALLAHASSEE    PTSUNNY   83  68  60 E14       30.24F
APALACHICOLA   CLOUDY    84  72  67 E15G21    30.22R
PERRY          MOSUNNY   82  67  61 E12       30.26S
CROSS CITY       N/A     84  68  58 VRB7      30.23F
JACKSONVILLE   MOSUNNY   81  61  50 E10       30.28F
$$

!FLZ112-006-005-002-011-241600
...Florida Panhandle...

CITY           SKY/WX    TMP DP  RH WIND       PRES   REMARKS
MARIANNA       PTSUNNY   81  71  71 E12       30.23S
BONIFAY        CLOUDY    80  71  74 VRB6      30.24R
PANAMA CITY NW PTSUNNY   82  71  69 E12       30.21R
TYNDALL AFB    PTSUNNY   84  72  65 E13       30.20S
TYND DRONE APT PTSUNNY   83  74  73 SE8G17    30.20S HX  90
DE FUNIAK SPR  CLOUDY    81  71  71 MISG      30.22F
EGLIN AFB      PTSUNNY   84  73  69 SE24      30.20S
DESTIN         PTSUNNY   84  74  71 SE15G24   30.19R HX  91
HURLBURT       MOSUNNY   82  73  75 SE16G28   30.18R
CRESTVIEW      CLOUDY    82  71  69 SE10      30.22R
PENSACOLA      CLOUDY    80  75  84 SE16G25   30.17S
$$

!ALZ063-066-241600
...South Alabama...

CITY           SKY/WX    TMP DP  RH WIND       PRES   REMARKS
DOTHAN         PTSUNNY   81  68  64 SE14      30.28S
OZARK CAIRNS   NOT AVBL
FT RUCKER HELI PTSUNNY   79  68  69 SE8       30.22F
RUCKER HELI 3  NOT AVBL
RUCKER HELI 2  PTSUNNY   79  70  74 SE12      30.23F
FLORALA APT    PTSUNNY   80  70  71 SE9G18    30.23S
ANDALUSIA      PTSUNNY   83  69  62 SE8       30.22S
TROY           PTSUNNY   79  69  71 SE10      30.26S
EUFALA         PTSUNNY   79  68  69 E10       30.27S
MOBILE         PTSUNNY   82  73  74 SE15      30.17R
$$

!GAZ120>161-241600
...Southwest and South Central Georgia...

CITY           SKY/WX    TMP DP  RH WIND       PRES   REMARKS
THOMASVILLE    PTSUNNY   81  70  69 SE7       30.28S
BAINBRIDGE     MOSUNNY   84  70  61 SE13      30.26S
MOODY AFB      MOSUNNY   82  64  55 E13G18    30.27F
VALDOSTA       PTSUNNY   80  65  59 SE9G18    30.28S
MOULTRIE       MOSUNNY   81  66  61 SE7       30.28F
BLAKELY        PTSUNNY   82  70  65 E7        30.27S
ALBANY         CLOUDY    80  66  62 SE12G17   30.31R
TIFTON         FAIR      78  62  57 SE10      30.29F
FITZGERALD     FAIR      80  61  52 SE8       30.33F
CORDELE        PTSUNNY   81  66  60 SE12      30.32S
AMERICUS       PTSUNNY   77  64  65 SE8       30.33S
HOMERVILLE     FAIR      82  66  57 E10       30.30F
$$

!GMZ750-755-770-775-241600
...Coastal and Buoy Obs...

STATION/POSITION TIME  TEMP    WIND        PRES    VSBY  WAVE
                       AIR SEA DIR/SP/G                  HT/PER
                 (UTC) (F)     (DEG/KT/KT) (MB)    (MI)  (FT/S)
KEATON BEACH     1500   80      80/ 11/ 15 1023.9F
CEDAR KEY        1500   79      90/ 14/ 15 1023.6F
C TOWER          1500   78     100/ 18/ 18 1023.1R
APALACHICOLA BUO 1450   80 80  110/ 16/ 19 1022.2R         4/ 6
PANAMA CITY BUOY 1450   80 81  120/ 17/ 21 1021.8R         5/ 6
MOBILE BUOY      1450   80 80  130/ 17/ 19 1020.6R         4/ 6
ORANGE BCH AL BU 1450   81 80  130/ 16/ 19 1020.3R         4/ 5
$$



USA.gov is the U.S. government's official web portal to all federal, state and local government web resources and services.